Culdrose, United Kingdom

8:08 AM BST on April 27, 2018 (GMT +0100)
Culdrose Navy

Weather History for EGDR - January, 2014

Change the Weather History Date:

Thursday, January 30, 2014

  Actual Average Record
Temperature  
Mean Temperature 40 °F -  
Max Temperature 44 °F 46 °F 54 °F (2017)
Min Temperature 32 °F 38 °F 24 °F (2011)
Degree Days  
Heating Degree Days 26    
Moisture  
Dew Point 36 °F    
Average Humidity 87    
Maximum Humidity 95    
Minimum Humidity 71    
Precipitation  
Precipitation 0.00 in - - ()
Sea Level Pressure  
Sea Level Pressure 29.58 in    
Wind  
Wind Speed 6 mph ()    
Max Wind Speed 9 mph    
Max Gust Speed -    
Visibility 7.5 miles    
Events Rain    
Averages and records for this station are not official NWS values.
T = Trace of Precipitation, MM = Missing Value Source: Averaged Metar Reports

Daily Weather History Graph

Daily Weather History Graph

Search for Another Location

Airport or City:

Astronomy

Jan. 30, 2014 Rise Set
Actual Time 7:57 AM GMT 5:11 PM GMT
Civil Twilight 7:22 AM GMT 5:46 PM GMT
Nautical Twilight 6:43 AM GMT 6:25 PM GMT
Astronomical Twilight 6:05 AM GMT 7:03 PM GMT
Moon 7:09 AM GMT (1/30) 5:10 PM GMT (1/30)
Length of Visible Light 10h 24m
Length of Day
9h 13m
Waning Crescent, 0% of the Moon is Illuminated
Jan 30
Waning Crescent
Jan 30
New
Feb 6
First Quarter
Feb 14
Full
Feb 22
Last Quarter

Hourly Weather History & Observations

Time (GMT) Temp. Windchill Dew Point Humidity Pressure Visibility Wind Dir Wind Speed Gust Speed Precip Events Conditions
12:00 AM 36 °F - 35 °F 95% 29.53 in 10 mi NE 6.9 mph - -   Partly Cloudy
12:50 AM 39.2 °F 33.0 °F 37.4 °F 93% 29.53 in 6.2 mi NNE 9.2 mph - N/A   Haze
1:00 AM 40 °F - 37 °F 87% 29.54 in 10 mi NNE 9.2 mph - -   Haze
1:50 AM 37.4 °F 30.8 °F 35.6 °F 93% 29.53 in 6.2 mi NE 9.2 mph - N/A   Haze
2:00 AM 37 °F - 35 °F 91% 29.56 in 7 mi NE 9.2 mph - -   Haze
2:50 AM 39.2 °F 34.2 °F 37.4 °F 93% 29.53 in 6.2 mi NE 6.9 mph - N/A   Light Drizzle
3:00 AM 39 °F - 37 °F 90% 29.56 in 7 mi NE 6.9 mph - - Rain Light Drizzle
3:50 AM 37.4 °F 32.1 °F 35.6 °F 93% 29.53 in 6.2 mi ENE 6.9 mph - N/A   Haze
4:00 AM 37 °F - 35 °F 89% 29.56 in 11 mi ENE 6.9 mph - - Rain Light Drizzle
4:50 AM 37.4 °F 33.8 °F 35.6 °F 93% 29.56 in 6.2 mi North 4.6 mph - N/A   Haze
5:00 AM 37 °F - 35 °F 92% 29.58 in 11 mi North 4.6 mph - -   Haze
5:50 AM 39.2 °F 34.2 °F 35.6 °F 87% 29.56 in 6.2 mi NNE 6.9 mph - N/A   Mostly Cloudy
6:00 AM 39 °F - 36 °F 85% 29.59 in 12 mi NNE 6.9 mph - -   Partly Cloudy
6:50 AM 37.4 °F 32.1 °F 35.6 °F 93% 29.56 in 6.2 mi ENE 6.9 mph - N/A   Mostly Cloudy
7:00 AM 38 °F - 36 °F 89% 29.59 in 12 mi ENE 6.9 mph - -   Mostly Cloudy
7:50 AM 37.4 °F 33.8 °F 35.6 °F 93% 29.59 in 6.2 mi NE 4.6 mph - N/A   Scattered Clouds
8:50 AM 39.2 °F 35.0 °F 35.6 °F 87% 29.59 in 6.2 mi ENE 5.8 mph - N/A   Mostly Cloudy
9:00 AM 38 °F - 36 °F 89% 29.60 in 12 mi ENE 5.8 mph - -   Mostly Cloudy
9:50 AM 39.2 °F 35.9 °F 35.6 °F 87% 29.59 in 6.2 mi ENE 4.6 mph - N/A   Mostly Cloudy
10:00 AM 39 °F - 36 °F 86% 29.61 in 6 mi ENE 4.6 mph - -   Haze
10:50 AM 41.0 °F 38.0 °F 37.4 °F 87% 29.59 in 6.2 mi East 4.6 mph - N/A   Mostly Cloudy
11:00 AM 40 °F - 37 °F 85% 29.61 in 6 mi East 4.6 mph - -   Haze
11:50 AM 41.0 °F 38.0 °F 39.2 °F 93% 29.56 in 6.2 mi ESE 4.6 mph - N/A   Haze
12:00 PM 42 °F - 38 °F 82% 29.60 in 6 mi ESE 4.6 mph - -   Haze
12:50 PM 42.8 °F 40.1 °F 37.4 °F 81% 29.56 in 6.2 mi SE 4.6 mph - N/A   Mostly Cloudy
1:00 PM 43 °F - 37 °F 73% 29.59 in 7 mi SE 4.6 mph - -   Haze
1:50 PM 44.6 °F 43.1 °F 37.4 °F 76% 29.56 in 6.2 mi SSW 3.5 mph - N/A   Mostly Cloudy
2:00 PM 44 °F - 38 °F 71% 29.58 in 7 mi SSW 3.5 mph - -   Haze
2:50 PM 42.8 °F 40.1 °F 37.4 °F 81% 29.56 in 6.2 mi SE 4.6 mph - N/A   Scattered Clouds
3:00 PM 43 °F - 37 °F 72% 29.57 in 9 mi SE 4.6 mph - -   Haze
3:50 PM 42.8 °F 40.1 °F 37.4 °F 81% 29.56 in 6.2 mi ESE 4.6 mph - N/A   Mostly Cloudy
4:00 PM 43 °F - 38 °F 75% 29.59 in 12 mi ESE 4.6 mph - -   Mostly Cloudy
4:50 PM 42.8 °F 39.3 °F 39.2 °F 87% 29.56 in 6.2 mi ESE 5.8 mph - N/A   Overcast
5:00 PM 42 °F - 38 °F 83% 29.59 in 6 mi ESE 5.8 mph - -   Haze
5:50 PM 39.2 °F 35.0 °F 37.4 °F 93% 29.59 in 6.2 mi East 5.8 mph - N/A   Haze
6:00 PM 40 °F - 37 °F 86% 29.60 in 6 mi East 5.8 mph - -   Haze
6:50 PM 37.4 °F 32.1 °F 35.6 °F 93% 29.59 in 6.2 mi East 6.9 mph - N/A   Haze
7:00 PM 37 °F - 36 °F 92% 29.62 in 6 mi East 6.9 mph - -   Haze
7:50 PM 37.4 °F 30.8 °F 35.6 °F 93% 29.59 in 6.2 mi East 9.2 mph - N/A   Partly Cloudy
8:00 PM 37 °F - 36 °F 93% 29.63 in 9 mi East 9.2 mph - -   Mist
8:50 PM 35.6 °F 28.6 °F 33.8 °F 93% 29.59 in 6.2 mi ESE 9.2 mph - N/A   Haze
9:00 PM 36 °F - 34 °F 87% 29.63 in 10 mi ESE 9.2 mph - -   Haze
9:50 PM 37.4 °F 32.1 °F 33.8 °F 87% 29.62 in 6.2 mi SE 6.9 mph - N/A   Haze
10:00 PM 37 °F - 35 °F 87% 29.65 in 11 mi SE 6.9 mph - -   Haze
10:50 PM 35.6 °F 29.9 °F 33.8 °F 93% 29.65 in 6.2 mi SE 6.9 mph - N/A   Haze
11:00 PM 36 °F - 33 °F 86% 29.67 in 10 mi SE 6.9 mph - -   Haze
11:50 PM 32.0 °F 24.8 °F 30.2 °F 93% 29.65 in 6.2 mi SE 8.1 mph - N/A   Haze